TimeAKDT,TemperatureF,Dew PointF,Humidity,Sea Level PressureIn,VisibilityMPH,Wind Direction,Wind SpeedMPH,Gust SpeedMPH,PrecipitationIn,Events,Conditions,WindDirDegrees,DateUTC
12:08 AM,30.2,28.4,93,29.33,3.0,SSW,19.6,-,0.00,Snow,Light Snow,210,2013-05-16 08:08:00
12:17 AM,30.2,28.4,93,29.34,2.5,SSW,18.4,-,0.00,Snow,Light Snow,210,2013-05-16 08:17:00
12:44 AM,28.4,26.6,93,29.33,3.0,SW,15.0,-,0.00,Snow,Light Snow,230,2013-05-16 08:44:00
12:53 AM,28.9,27.0,92,29.34,3.0,SW,16.1,-,0.00,Snow,Light Snow,220,2013-05-16 08:53:00
12:59 AM,28.4,26.6,93,29.33,2.5,West,21.9,-,0.00,Snow,Light Snow,260,2013-05-16 08:59:00
1:07 AM,26.6,24.8,93,29.34,3.0,West,21.9,-,0.00,Snow,Light Snow,270,2013-05-16 09:07:00
1:14 AM,24.8,23.0,93,29.34,3.0,West,21.9,-,0.00,Snow,Light Snow,270,2013-05-16 09:14:00
1:50 AM,21.2,19.4,93,29.36,3.0,West,25.3,28.8,0.00,Snow,Light Snow,280,2013-05-16 09:50:00
1:53 AM,21.9,19.0,89,29.37,4.0,West,25.3,28.8,0.00,Snow,Light Snow,280,2013-05-16 09:53:00
2:09 AM,21.2,17.6,86,29.37,9.0,WNW,20.7,29.9,0.00,Snow,Light Snow,290,2013-05-16 10:09:00
2:53 AM,19.0,15.1,85,29.39,10.0,WNW,20.7,27.6,0.00,,Mostly Cloudy,290,2013-05-16 10:53:00
3:53 AM,17.1,12.9,84,29.41,9.0,WNW,19.6,-,0.00,Snow,Blowing Snow,290,2013-05-16 11:53:00
4:25 AM,15.8,12.2,86,29.43,9.0,WNW,19.6,28.8,N/A,Snow,Blowing Snow,290,2013-05-16 12:25:00
4:53 AM,15.1,10.9,84,29.45,6.0,WNW,19.6,27.6,0.00,Snow,Light Snow,300,2013-05-16 12:53:00
5:53 AM,12.9,8.1,81,29.48,10.0,WNW,19.6,29.9,0.00,,Mostly Cloudy,300,2013-05-16 13:53:00
6:53 AM,14.0,8.1,77,29.50,10.0,NW,18.4,-,N/A,,Mostly Cloudy,310,2013-05-16 14:53:00
7:53 AM,14.0,8.1,77,29.52,10.0,WNW,17.3,-,N/A,,Mostly Cloudy,300,2013-05-16 15:53:00
8:00 AM,14.0,8.6,79,29.52,10.0,WNW,15.0,-,N/A,,Overcast,300,2013-05-16 16:00:00
8:53 AM,14.0,8.1,77,29.54,6.0,NW,18.4,-,N/A,,Mostly Cloudy,310,2013-05-16 16:53:00
9:53 AM,15.1,8.1,74,29.55,10.0,WNW,17.3,-,N/A,,Overcast,300,2013-05-16 17:53:00
10:53 AM,15.1,9.0,77,29.57,10.0,NW,18.4,25.3,0.00,,Overcast,320,2013-05-16 18:53:00
11:53 AM,15.1,8.1,74,29.60,10.0,NW,18.4,-,N/A,,Mostly Cloudy,310,2013-05-16 19:53:00
12:53 PM,16.0,10.0,77,29.60,3.0,WNW,17.3,-,0.00,Snow,Light Snow,300,2013-05-16 20:53:00
1:53 PM,16.0,8.1,71,29.62,10.0,West,17.3,-,0.00,,Overcast,280,2013-05-16 21:53:00
2:53 PM,17.1,10.0,74,29.63,10.0,WNW,17.3,-,0.00,,Overcast,290,2013-05-16 22:53:00
3:53 PM,17.1,8.1,68,29.64,10.0,West,16.1,-,0.00,,Overcast,280,2013-05-16 23:53:00
4:53 PM,17.1,9.0,71,29.65,7.0,West,20.7,-,0.00,,Overcast,280,2013-05-17 00:53:00
5:53 PM,17.1,10.0,74,29.66,9.0,WNW,11.5,-,0.00,Snow,Light Snow,300,2013-05-17 01:53:00
6:15 PM,17.6,10.4,73,29.66,4.0,NW,10.4,-,0.00,Snow,Light Snow,310,2013-05-17 02:15:00
6:26 PM,17.6,10.4,73,29.66,4.0,WNW,8.1,-,0.00,Snow,Light Snow,300,2013-05-17 02:26:00
6:32 PM,17.6,10.4,73,29.66,2.5,WNW,9.2,-,0.00,Snow,Light Snow,300,2013-05-17 02:32:00
6:53 PM,16.0,10.0,77,29.66,4.0,WNW,8.1,-,0.00,Snow,Light Snow,300,2013-05-17 02:53:00
7:53 PM,17.1,9.0,71,29.67,10.0,WNW,8.1,-,0.00,,Overcast,290,2013-05-17 03:53:00
8:53 PM,16.0,10.9,81,29.67,10.0,West,5.8,-,0.00,,Overcast,270,2013-05-17 04:53:00
9:53 PM,17.1,10.9,77,29.68,10.0,West,8.1,-,0.00,,Overcast,260,2013-05-17 05:53:00
10:53 PM,16.0,10.0,77,29.69,10.0,West,9.2,-,N/A,,Overcast,280,2013-05-17 06:53:00
11:53 PM,16.0,10.9,81,29.70,10.0,West,8.1,-,N/A,,Overcast,260,2013-05-17 07:53:00